Weather History for KLUF - August, 2013

Change the Weather History Date:

Wednesday, August 21, 2013

  Actual Average Record
Temperature  
Mean Temperature 93 °F -  
Max Temperature 99 °F 105 °F 117 °F (1969)
Min Temperature 87 °F 73 °F 56 °F (1917)
Cooling Degree Days 28    
Growing Degree Days 43 (Base 50)    
Moisture  
Dew Point 59 °F    
Average Humidity 32    
Maximum Humidity 43    
Minimum Humidity 24    
Precipitation  
Precipitation 0.00 in - - ()
Sea Level Pressure  
Sea Level Pressure 29.82 in    
Wind  
Wind Speed 4 mph (East)    
Max Wind Speed 8 mph    
Max Gust Speed -    
Visibility 10 miles    
Events      
Averages and records for this station are not official NWS values.
T = Trace of Precipitation, MM = Missing Value Source: NWS Daily Summary

Daily Weather History Graph

Daily Weather History Graph

Search for Another Location

Airport or City:

Trip Planner

Search our weather history database for the weather conditions in past years. The results will help you decide how hot, cold, wet, or windy it might be!

Date:

Astronomy

Aug. 21, 2013 Rise Set
Actual Time 5:56 AM MST 7:08 PM MST
Civil Twilight 5:30 AM MST 7:34 PM MST
Nautical Twilight 4:59 AM MST 8:04 PM MST
Astronomical Twilight 4:27 AM MST 8:36 PM MST
Moon 7:26 PM MST (8/21) 6:35 AM MST (8/21)
Length of Visible Light 14h 03m
Length of Day
13h 12m
Full, 99% of the Moon is Illuminated
Aug 21
Full
Aug 28
Last Quarter
Sep 5
New
Sep 12
First Quarter
Sep 19
Full

Hourly Weather History & Observations

Time (MST) Temp. Heat Index Dew Point Humidity Pressure Visibility Wind Dir Wind Speed Gust Speed Precip Events Conditions
12:58 AM 93.2 °F 91.9 °F 57.6 °F 30% 29.82 in 10.0 mi SE 3.5 mph - N/A   Mostly Cloudy
1:58 AM 91.8 °F 90.9 °F 58.5 °F 33% 29.81 in 10.0 mi ENE 2.3 mph - N/A   Clear
2:58 AM 91.2 °F 90.5 °F 58.8 °F 34% 29.80 in 10.0 mi SSW 3.5 mph - N/A   Partly Cloudy
3:58 AM 87.4 °F 86.9 °F 59.4 °F 39% 29.79 in 10.0 mi WNW 4.6 mph - N/A   Scattered Clouds
4:58 AM 87.6 °F 87.2 °F 59.7 °F 39% 29.80 in 10.0 mi ENE 4.6 mph - N/A   Mostly Cloudy
5:58 AM 88.5 °F 88.1 °F 60.1 °F 38% 29.81 in 10.0 mi SSE 3.5 mph - N/A   Mostly Cloudy
6:31 AM 87.8 °F 88.5 °F 62.6 °F 43% 29.86 in 10.0 mi NW 2.3 mph - N/A   Mostly Cloudy
6:58 AM 88.9 °F 88.8 °F 60.6 °F 39% 29.82 in 10.0 mi North 2.3 mph - N/A   Mostly Cloudy
7:58 AM 90.3 °F 89.9 °F 60.1 °F 36% 29.86 in 10.0 mi ENE 4.6 mph - N/A   Mostly Cloudy
8:58 AM 92.8 °F 92.8 °F 60.3 °F 34% 29.86 in 10.0 mi SE 5.8 mph - N/A   Mostly Cloudy
9:58 AM 93.7 °F 93.3 °F 59.4 °F 32% 29.88 in 10.0 mi ESE 2.3 mph - N/A   Mostly Cloudy
10:58 AM 95.0 °F 94.8 °F 59.5 °F 31% 29.88 in 10.0 mi WSW 1.2 mph - N/A   Mostly Cloudy
11:58 AM 95.0 °F 94.8 °F 59.5 °F 31% 29.86 in 10.0 mi South 6.9 mph - N/A   Mostly Cloudy
12:58 PM 97.0 °F 96.9 °F 59.5 °F 29% 29.85 in 10.0 mi Variable 5.8 mph - N/A   Mostly Cloudy
1:58 PM 97.7 °F 97.6 °F 59.2 °F 28% 29.83 in 10.0 mi NE 3.5 mph - N/A   Scattered Clouds
2:58 PM 97.3 °F 96.6 °F 58.6 °F 27% 29.81 in 10.0 mi SSE 8.1 mph - N/A   Partly Cloudy
3:58 PM 97.7 °F 97.1 °F 58.3 °F 27% 29.77 in 10.0 mi Variable 4.6 mph - N/A   Clear
4:58 PM 99.9 °F 99.4 °F 57.7 °F 25% 29.75 in 10.0 mi Variable 3.5 mph - N/A   Partly Cloudy
5:58 PM 99.0 °F 97.7 °F 55.8 °F 24% 29.75 in 10.0 mi NE 4.6 mph - N/A   Clear
6:58 PM 98.4 °F 97.3 °F 57.2 °F 25% 29.76 in 10.0 mi SSE 8.1 mph - N/A   Mostly Cloudy
7:58 PM 96.8 °F 96.2 °F 58.3 °F 28% 29.79 in 10.0 mi SE 4.6 mph - 0.00 in   Mostly Cloudy
8:58 PM 94.3 °F 94.1 °F 59.9 °F 32% 29.81 in 10.0 mi North 3.5 mph - N/A   Scattered Clouds
9:58 PM 92.8 °F 92.4 °F 59.5 °F 33% 29.82 in 10.0 mi East 3.5 mph - N/A   Scattered Clouds
10:58 PM 91.2 °F 90.8 °F 60.3 °F 35% 29.82 in 10.0 mi NNW 2.3 mph - N/A   Mostly Cloudy
11:58 PM 92.7 °F 91.5 °F 58.3 °F 31% 29.83 in 10.0 mi NE 3.5 mph - N/A   Mostly Cloudy